EDT,Max TemperatureF,Mean TemperatureF,Min TemperatureF,Max Dew PointF,MeanDew PointF,Min DewpointF,Max Humidity, Mean Humidity, Min Humidity, Max Sea Level PressureIn, Mean Sea Level PressureIn, Min Sea Level PressureIn, Max VisibilityMiles, Mean VisibilityMiles, Min VisibilityMiles, Max Wind SpeedMPH, Mean Wind SpeedMPH, Max Gust SpeedMPH,PrecipitationIn, CloudCover, Events, WindDirDegrees
2012-10-1,68,59,50,59,53,50,100,89,60,29.98,29.94,29.90,10,7,2,9,2,,0.00,3,Rain,220
2012-10-2,71,66,62,72,64,55,100,91,73,29.97,29.95,29.91,10,6,1,6,2,,0.00,8,Rain,59
2012-10-3,82,76,69,73,71,66,100,94,58,30.13,30.04,29.96,10,4,0,7,1,,0.01,6,Fog,208
2012-10-4,80,71,62,73,69,61,100,94,65,30.15,30.12,30.08,10,7,2,14,1,,0.00,3,Rain,280
2012-10-5,82,70,59,64,59,55,100,81,39,30.13,30.08,29.97,10,10,7,14,2,21,0.00,0,,225
2012-10-6,80,65,50,63,56,45,88,75,48,30.06,29.94,29.85,10,10,10,23,5,29,0.00,1,,221
2012-10-7,55,50,44,50,46,43,100,88,67,30.17,30.10,30.05,10,8,0,7,3,,0.00,4,Fog-Rain,290
2012-10-8,55,47,39,46,43,39,100,88,58,30.31,30.24,30.18,10,8,2,7,3,,0.01,4,,306
2012-10-9,59,54,48,55,49,43,100,86,76,30.22,30.17,30.09,10,9,5,7,4,,0.04,8,Rain,327
2012-10-10,68,60,53,57,52,41,100,81,43,30.08,30.01,29.88,10,6,2,23,4,33,0.01,6,Rain,271
2012-10-11,62,53,44,45,39,32,93,65,34,30.30,30.19,30.10,10,10,10,12,6,,0.00,0,,256
2012-10-12,66,54,41,45,41,32,93,78,36,30.46,30.22,30.15,10,10,10,20,3,30,0.00,1,,280
2012-10-13,57,46,35,41,33,25,87,66,29,30.56,30.46,30.34,10,10,10,9,2,,0.00,0,,171
2012-10-14,71,62,53,59,50,41,83,73,57,30.32,30.19,29.96,10,10,10,16,10,20,0.00,1,,167
2012-10-15,68,62,53,64,60,50,100,87,73,29.96,29.81,29.69,10,9,3,10,7,16,0.00,4,Rain,172
2012-10-16,64,55,46,50,46,41,100,78,45,29.94,29.86,29.79,10,10,10,17,8,22,0.00,1,,278
2012-10-17,64,53,42,54,46,41,100,86,56,30.05,29.98,29.94,10,9,7,9,1,,0.00,2,,112
2012-10-18,69,58,46,61,55,46,100,86,56,29.99,29.93,29.84,10,10,7,13,6,16,0.00,3,,123
2012-10-19,73,68,59,66,63,59,100,94,78,29.84,29.74,29.62,10,9,2,15,3,,0.01,6,Rain-Thunderstorm,126
2012-10-20,66,57,48,59,48,39,100,79,42,29.92,29.78,29.68,10,7,0,15,2,23,0.00,2,Fog,266
2012-10-21,66,56,46,46,42,41,82,65,40,30.13,30.03,29.93,10,10,10,14,7,18,0.00,1,,270
2012-10-22,69,56,42,50,43,41,94,71,35,30.21,30.15,30.11,10,10,6,12,2,17,0.00,0,,277
2012-10-23,71,60,48,57,51,46,100,86,52,30.16,30.11,30.07,10,10,7,6,0,,0.00,1,,144
2012-10-24,73,63,53,63,57,54,100,93,61,30.16,30.11,30.07,10,8,5,6,1,,0.00,2,,114
2012-10-25,66,63,60,61,60,59,100,92,83,30.24,30.20,30.17,10,5,4,7,5,,0.00,8,,69
2012-10-26,68,64,60,61,60,59,100,91,73,30.22,30.16,30.09,10,9,7,8,1,,0.00,6,,67
2012-10-27,68,62,57,59,56,52,100,84,60,30.08,29.97,29.89,10,10,10,12,1,20,0.00,2,,46
2012-10-28,60,56,53,54,51,46,100,79,59,29.88,29.77,29.60,10,10,7,14,5,21,0.07,4,Rain,3
2012-10-29,53,50,46,54,50,46,100,96,88,29.59,29.11,28.42,10,6,2,38,13,54,0.66,8,Rain,309
2012-10-30,46,44,42,46,42,41,100,92,87,29.93,29.12,28.48,10,7,4,25,16,37,0.42,8,Rain,182
2012-10-31,51,46,42,45,40,36,93,79,58,29.66,29.57,29.48,10,10,10,12,3,,0.00,6,,227